Fort Meade, MD

7:11 AM EDT on October 17, 2017 (GMT -0400)
Tipton

Weather History for KFME - February, 2013

Change the Weather History Date:

Monday, February 18, 2013

  Actual Average (KBWI) Record (KBWI)
Temperature  
Mean Temperature 30 °F -  
Max Temperature 41 °F 44 °F 75 °F (1976)
Min Temperature 19 °F 27 °F 3 °F (1979)
Degree Days  
Heating Degree Days 35    
Moisture  
Dew Point 9 °F    
Average Humidity 45    
Maximum Humidity 74    
Minimum Humidity 23    
Precipitation  
Precipitation 0.00 in - - ()
Sea Level Pressure  
Sea Level Pressure 30.30 in    
Wind  
Wind Speed 7 mph (West)    
Max Wind Speed 13 mph    
Max Gust Speed 17 mph    
Visibility 10 miles    
Events      
Averages and records for this station are not official NWS values.
T = Trace of Precipitation, MM = Missing Value Source: NWS Daily Summary

Daily Weather History Graph

Daily Weather History Graph

Search for Another Location

Airport or City:

Trip Planner

Search our weather history database for the weather conditions in past years. The results will help you decide how hot, cold, wet, or windy it might be!

Date:

Astronomy

Feb. 18, 2013 Rise Set
Actual Time 6:54 AM EST 5:47 PM EST
Civil Twilight 6:27 AM EST 6:15 PM EST
Nautical Twilight 5:56 AM EST 6:46 PM EST
Astronomical Twilight 5:25 AM EST 7:17 PM EST
Moon 11:33 AM EST (2/18) 1:31 AM EST (2/18)
Length of Visible Light 11h 47m
Length of Day
10h 53m
First Quarter, 58% of the Moon is Illuminated
Feb 18
First Quarter
Feb 25
Full
Mar 4
Last Quarter
Mar 11
New
Mar 19
First Quarter

Hourly Weather History & Observations

Time (EST) Temp. Windchill Dew Point Humidity Pressure Visibility Wind Dir Wind Speed Gust Speed Precip Events Conditions
12:18 AM 23.0 °F 13.9 °F 6.8 °F 50% 30.22 in 10.0 mi WNW 8.1 mph - N/A   Clear
12:39 AM 23.0 °F 14.7 °F 8.6 °F 54% 30.23 in 10.0 mi WNW 6.9 mph 17.3 mph N/A   Clear
12:57 AM 23.0 °F 13.1 °F 6.8 °F 50% 30.24 in 10.0 mi NW 9.2 mph 16.1 mph N/A   Clear
1:18 AM 23.0 °F 12.4 °F 5.0 °F 46% 30.24 in 10.0 mi WNW 10.4 mph - N/A   Clear
1:57 AM 23.0 °F 14.7 °F 5.0 °F 46% 30.25 in 10.0 mi WNW 6.9 mph - N/A   Clear
2:18 AM 21.2 °F 12.6 °F 6.8 °F 54% 30.25 in 10.0 mi WNW 6.9 mph - N/A   Clear
2:39 AM 21.2 °F 12.6 °F 8.6 °F 58% 30.25 in 10.0 mi WNW 6.9 mph - N/A   Clear
2:57 AM 21.2 °F 13.6 °F 6.8 °F 54% 30.26 in 10.0 mi West 5.8 mph - N/A   Clear
3:18 AM 21.2 °F 11.7 °F 6.8 °F 54% 30.27 in 10.0 mi West 8.1 mph - N/A   Clear
3:39 AM 21.2 °F 11.7 °F 6.8 °F 54% 30.27 in 10.0 mi West 8.1 mph - N/A   Clear
3:57 AM 21.2 °F 8.9 °F 5.0 °F 50% 30.28 in 10.0 mi West 12.7 mph - N/A   Clear
4:18 AM 21.2 °F 10.9 °F 6.8 °F 54% 30.28 in 10.0 mi West 9.2 mph - N/A   Clear
4:39 AM 21.2 °F 12.6 °F 5.0 °F 50% 30.29 in 10.0 mi West 6.9 mph 16.1 mph N/A   Clear
4:57 AM 21.2 °F 11.7 °F 5.0 °F 50% 30.31 in 10.0 mi West 8.1 mph - N/A   Clear
5:18 AM 21.2 °F 10.9 °F 5.0 °F 50% 30.32 in 10.0 mi WNW 9.2 mph - N/A   Clear
5:39 AM 21.2 °F 10.1 °F 5.0 °F 50% 30.33 in 10.0 mi West 10.4 mph - N/A   Clear
6:18 AM 21.2 °F 13.6 °F 6.8 °F 54% 30.34 in 10.0 mi West 5.8 mph - N/A   Clear
6:39 AM 19.4 °F 10.4 °F 8.6 °F 63% 30.35 in 10.0 mi West 6.9 mph - N/A   Clear
7:18 AM 21.2 °F 12.6 °F 8.6 °F 58% 30.37 in 10.0 mi West 6.9 mph - N/A   Clear
7:39 AM 21.2 °F 14.9 °F 8.6 °F 58% 30.38 in 10.0 mi West 4.6 mph - N/A   Clear
7:57 AM 23.0 °F 14.7 °F 8.6 °F 54% 30.38 in 10.0 mi West 6.9 mph - N/A   Clear
8:18 AM 24.8 °F 16.9 °F 8.6 °F 50% 30.39 in 10.0 mi West 6.9 mph - N/A   Clear
8:39 AM 26.6 °F 17.5 °F 6.8 °F 43% 30.40 in 10.0 mi West 9.2 mph - N/A   Clear
9:00 AM 26.6 °F 15.7 °F 6.8 °F 43% 30.40 in 10.0 mi West 12.7 mph 17.3 mph N/A   Clear
9:18 AM 28.4 °F 19.7 °F 6.8 °F 40% 30.40 in 10.0 mi WNW 9.2 mph - N/A   Clear
9:39 AM 30.2 °F 22.6 °F 8.6 °F 40% 30.40 in 10.0 mi NW 8.1 mph - N/A   Clear
10:00 AM 30.2 °F 22.6 °F 6.8 °F 37% 30.40 in 10.0 mi West 8.1 mph - N/A   Clear
10:18 AM 30.2 °F 21.3 °F 6.8 °F 37% 30.40 in 10.0 mi WNW 10.4 mph - N/A   Clear
10:39 AM 32.0 °F 23.6 °F 5.0 °F 32% 30.39 in 10.0 mi West 10.4 mph - N/A   Clear
11:00 AM 32.0 °F 24.8 °F 6.8 °F 35% 30.39 in 10.0 mi West 8.1 mph - N/A   Clear
11:18 AM 32.0 °F 26.4 °F 6.8 °F 35% 30.38 in 10.0 mi WNW 5.8 mph - N/A   Clear
11:39 AM 32.0 °F 24.8 °F 6.8 °F 35% 30.37 in 10.0 mi WSW 8.1 mph - N/A   Clear
12:00 PM 33.8 °F 28.6 °F 6.8 °F 32% 30.36 in 10.0 mi WNW 5.8 mph - N/A   Clear
12:18 PM 35.6 °F 29.9 °F 6.8 °F 30% 30.35 in 10.0 mi WNW 6.9 mph - N/A   Clear
12:39 PM 35.6 °F 29.2 °F 6.8 °F 30% 30.34 in 10.0 mi WNW 8.1 mph - N/A   Clear
1:00 PM 35.6 °F 29.9 °F 6.8 °F 30% 30.33 in 10.0 mi WSW 6.9 mph - N/A   Clear
1:18 PM 35.6 °F 28.6 °F 5.0 °F 28% 30.32 in 10.0 mi West 9.2 mph - N/A   Clear
1:39 PM 37.4 °F 30.8 °F 5.0 °F 26% 30.31 in 10.0 mi West 9.2 mph - N/A   Clear
2:00 PM 37.4 °F 30.8 °F 5.0 °F 26% 30.30 in 10.0 mi WSW 9.2 mph - N/A   Clear
2:18 PM 39.2 °F 34.2 °F 6.8 °F 26% 30.29 in 10.0 mi SW 6.9 mph - N/A   Clear
2:39 PM 39.2 °F 35.0 °F 6.8 °F 26% 30.28 in 10.0 mi SW 5.8 mph - N/A   Clear
3:00 PM 41.0 °F 37.1 °F 5.0 °F 23% 30.27 in 10.0 mi SW 5.8 mph - N/A   Clear
3:18 PM 39.2 °F 35.9 °F 5.0 °F 24% 30.27 in 10.0 mi SW 4.6 mph - N/A   Clear
3:39 PM 41.0 °F 37.1 °F 5.0 °F 23% 30.27 in 10.0 mi South 5.8 mph - N/A   Clear
4:00 PM 39.2 °F 35.0 °F 5.0 °F 24% 30.27 in 10.0 mi WSW 5.8 mph - N/A   Clear
4:18 PM 39.2 °F 34.2 °F 6.8 °F 26% 30.26 in 10.0 mi SW 6.9 mph - N/A   Clear
4:39 PM 39.2 °F 34.2 °F 6.8 °F 26% 30.26 in 10.0 mi SW 6.9 mph - N/A   Clear
5:00 PM 37.4 °F 32.8 °F 8.6 °F 30% 30.26 in 10.0 mi SSW 5.8 mph - N/A   Clear
5:21 PM 37.4 °F 33.8 °F 8.6 °F 30% 30.27 in 10.0 mi SSW 4.6 mph - N/A   Clear
5:39 PM 35.6 °F - 8.6 °F 33% 30.27 in 10.0 mi Calm Calm - N/A   Clear
6:00 PM 33.8 °F - 8.6 °F 35% 30.27 in 10.0 mi Calm Calm - N/A   Clear
6:21 PM 32.0 °F - 8.6 °F 38% 30.28 in 10.0 mi Calm Calm - N/A   Clear
7:00 PM 30.2 °F 26.7 °F 12.2 °F 47% 30.27 in 10.0 mi SE 3.5 mph - N/A   Clear
7:39 PM 28.4 °F - 15.8 °F 59% 30.26 in 10.0 mi Calm Calm - N/A   Clear
8:00 PM 28.4 °F - 15.8 °F 59% 30.25 in 10.0 mi Calm Calm - N/A   Clear
8:21 PM 28.4 °F - 17.6 °F 64% 30.25 in 10.0 mi Calm Calm - N/A   Clear
8:39 PM 28.4 °F 24.6 °F 19.4 °F 69% 30.25 in 10.0 mi SSE 3.5 mph - N/A   Clear
9:00 PM 28.4 °F - 19.4 °F 69% 30.25 in 10.0 mi Calm Calm - N/A   Clear
9:21 PM 28.4 °F - 17.6 °F 64% 30.24 in 10.0 mi Calm Calm - N/A   Clear
9:39 PM 28.4 °F - 17.6 °F 64% 30.23 in 10.0 mi Calm Calm - N/A   Clear
10:00 PM 28.4 °F 24.6 °F 17.6 °F 64% 30.23 in 10.0 mi South 3.5 mph - N/A   Clear
10:21 PM 30.2 °F 26.7 °F 17.6 °F 60% 30.22 in 10.0 mi SSE 3.5 mph - N/A   Clear
10:39 PM 28.4 °F - 19.4 °F 69% 30.22 in 10.0 mi Calm Calm - N/A   Clear
11:00 PM 28.4 °F - 19.4 °F 69% 30.21 in 10.0 mi Calm Calm - N/A   Clear
11:21 PM 28.4 °F - 17.6 °F 64% 30.21 in 10.0 mi Calm Calm - N/A   Clear
11:39 PM 26.6 °F 22.6 °F 19.4 °F 74% 30.20 in 10.0 mi SE 3.5 mph - N/A   Clear